Weather observations for the past three days for
Mitchell, Mitchell Municipal Airport
Metric (Imperial)
Date Time (cdt) Wind (kph) Vis. (km) Weather Sky Cond. Temperature (ºC) Relative Humidity Wind Chill (°C) Heat Index (°C) Pressure Precipitation (cm)
Air Dwpt 6 hour altimeter (cm) sea level (mb) 1 hr 3 hr 6 hr
Max. Min.
24 23:53 S 11 16.09 Fair CLR 11.7 6.1 69% 75.62 1008.4
24 22:53 S 11 16.09 Fair CLR 11.7 6.1 69% 75.64 1008.7
24 21:53 S 7 16.09 Fair CLR 12.2 6.7 69% 75.64 1008.7
24 20:53 W 6 16.09 Fair CLR 14.4 5 53% 75.62 1008.2
24 19:53 NW 24 G 41 16.09 Fair CLR 16.7 4.4 44% 75.62 1008.0
24 18:53 NW 35 G 57 16.09 Fair and Breezy CLR 17.2 4.4 17.8 13.3 43% 75.59 1007.9
24 17:53 NW 44 G 59 16.09 A Few Clouds and Windy FEW050 16.7 5 46% 75.59 1007.5
24 16:53 NW 44 G 65 16.09 Mostly Cloudy and Windy BKN050 16.7 5.6 48% 75.54 1007.1
24 15:53 NW 41 G 70 16.09 Mostly Cloudy and Breezy BKN046 16.7 6.1 50% 75.51 1006.7
24 14:53 NW 46 G 72 16.09 Mostly Cloudy and Windy BKN044 16.7 6.1 50% 75.46 1005.9
24 13:53 NW 46 G 72 16.09 Overcast and Windy OVC042 15 5.6 54% 75.44 1005.6
24 12:53 W 31 G 61 16.09 Overcast OVC032 13.3 5.6 13.3 10 60% 75.39 1005.0
24 11:53 W 37 G 69 16.09 Overcast and Breezy BKN027 OVC036 12.8 5.6 62% 75.29 1003.7
24 10:53 W 41 G 57 16.09 Overcast and Breezy OVC024 11.1 5.6 69% 75.23 1002.8
24 09:53 W 39 G 65 16.09 Overcast and Breezy OVC020 11.7 6.1 69% 75.18 1001.9
24 08:53 W 31 G 69 16.09 A Few Clouds FEW024 12.2 6.1 67% 75.11 1001.1
24 07:53 W 22 G 44 16.09 Fair CLR 11.1 6.1 72% 75.13 1001.3
24 06:53 W 20 G 41 16.09 A Few Clouds FEW080 10.6 5.6 14.4 10 71% 75.11 1001.1 0.05
24 05:53 W 22 G 35 16.09 Mostly Cloudy BKN080 13.3 8.3 72% 75.08 1000.5
24 04:53 S 9 16.09 Overcast OVC070 13.9 12.2 90% 75.01 999.4
24 03:53 S 6 16.09 Overcast OVC060 13.9 11.7 87% 75.03 999.7 0.03 0.05
24 02:53 Calm 16.09 Light Rain SCT060 OVC100 14.4 12.2 87% 75.13 1001.0 0.03
24 01:53 W 6 16.09 Mostly Cloudy BKN050 BKN060 BKN120 14.4 12.2 87% 75.23 1002.5
24 00:53 NW 7 16.09 Overcast OVC100 14.4 12.8 24.4 14.4 90% 75.26 1002.8 0.03 0.03
23 23:53 NW 13 16.09 Light Rain OVC100 15 12.2 83% 75.34 1003.8
23 22:53 W 28 G 50 16.09 Mostly Cloudy BKN080 21.1 10 49% 75.34 1003.7
23 21:53 SE 22 16.09 Mostly Cloudy BKN085 20 10 53% 75.18 1001.9
23 20:53 SE 26 G 37 16.09 Fair CLR 21.7 10.6 49% 75.18 1001.7
23 19:53 S 26 16.09 Fair CLR 23.3 11.1 46% 75.18 1001.6
23 18:53 S 26 G 41 16.09 Fair CLR 24.4 11.7 27.2 24.4 45% 26 75.13 1001.1
23 17:53 S 39 G 59 16.09 Fair and Breezy CLR 26.1 12.2 42% 26 75.06 1000.2
23 16:53 S 39 G 65 16.09 Fair and Breezy CLR 26.1 12.2 42% 26 75.13 1001.1
23 15:53 S 33 G 67 16.09 Fair and Breezy CLR 26.7 12.2 41% 27 75.21 1002.2
23 14:53 S 41 G 61 16.09 Fair and Breezy CLR 26.1 11.7 41% 26 75.23 1002.6
23 13:53 S 35 G 56 16.09 Mostly Cloudy and Breezy BKN095 25.6 12.2 43% 26 75.29 1003.1
23 12:53 S 24 G 52 16.09 Partly Cloudy SCT085 25.6 12.2 25.6 12.2 43% 26 75.31 1003.6
23 11:53 S 19 16.09 Thunderstorm in Vicinity BKN095 BKN110 21.7 12.8 57% 75.36 1004.2
23 10:53 S 28 G 46 16.09 Partly Cloudy SCT100 22.8 12.8 53% 75.39 1004.7
23 09:53 S 20 16.09 A Few Clouds FEW110 19.4 12.2 63% 75.46 1005.6
23 08:53 S 19 G 31 16.09 Fair CLR 16.1 10.6 70% 75.51 1006.5
23 07:53 SE 22 16.09 Fair CLR 15 10 72% 75.54 1006.9
23 06:53 SE 19 16.09 Fair CLR 12.2 9.4 14.4 12.2 83% 75.57 1007.1
23 05:53 SE 19 16.09 Fair CLR 12.2 9.4 83% 75.57 1006.9
23 04:53 SE 15 16.09 Fair CLR 12.2 9.4 83% 75.59 1007.4
23 03:53 SE 13 16.09 Fair CLR 12.2 10 87% 75.62 1007.7
23 02:53 SE 13 16.09 Fair CLR 13.9 10 78% 75.64 1008.0
23 01:53 SE 11 16.09 Fair CLR 13.9 10 78% 75.69 1008.7
23 00:53 S 13 16.09 Fair CLR 14.4 10 21.7 13.9 75% 75.69 1009.0
22 23:53 S 13 16.09 Fair CLR 15 10 72% 75.72 1009.0
22 22:53 SE 11 16.09 Fair CLR 15 10.6 75% 75.72 1009.1
22 21:53 S 13 16.09 Fair CLR 15.6 10 70% 75.72 1009.3
22 20:53 S 11 16.09 Fair CLR 18.9 7.8 49% 75.72 1009.1
22 19:53 SW 13 16.09 A Few Clouds FEW070 20.6 7.8 44% 75.69 1008.9
22 18:53 W 13 16.09 A Few Clouds FEW070 21.1 6.1 22.2 20 38% 75.67 1008.6
22 17:53 SW 13 16.09 Fair CLR 21.7 6.1 36% 75.67 1008.5
22 16:53 SW 17 16.09 A Few Clouds FEW075 22.2 6.7 37% 75.69 1009.0
22 15:53 SW 15 16.09 A Few Clouds FEW070 21.7 7.2 39% 75.74 1009.7
22 14:53 SW 11 16.09 A Few Clouds FEW065 21.1 7.2 41% 75.77 1010.1
22 13:53 W 19 G 28 16.09 A Few Clouds FEW060 20.6 7.2 42% 75.82 1010.5
22 12:53 NW 11 G 30 16.09 Fair CLR 20 7.8 20.6 10.6 45% 75.84 1010.9
22 11:53 NW 17 16.09 Fair CLR 19.4 7.8 47% 75.84 1011.1
22 10:53 W 15 16.09 Fair CLR 17.8 9.4 58% 75.84 1011.2
22 09:53 W 22 16.09 Fair CLR 16.1 10 67% 75.84 1011.2
22 08:53 W 24 G 39 16.09 Fair CLR 13.3 8.9 75% 75.84 1011.2
22 07:53 W 19 16.09 Fair CLR 12.2 8.3 77% 75.79 1010.5
22 06:53 W 20 16.09 Fair CLR 10.6 7.2 11.1 10 80% 75.77 1010.1
22 05:53 W 22 16.09 Fair CLR 10.6 7.8 83% 75.69 1009.3
22 04:53 W 24 16.09 Fair CLR 10.6 7.8 83% 75.67 1009.0
22 03:53 W 17 16.09 Fair CLR 10.6 7.8 83% 75.67 1008.8
22 02:53 W 9 16.09 Fair CLR 10 6.7 80% 9 75.67 1008.8
22 01:53 W 13 16.09 Fair CLR 11.1 6.7 75% 75.67 1008.9
22 00:53 W 15 16.09 Fair CLR 10.6 6.7 16.1 10 77% 75.67 1009.1
Date Time (cdt) Wind (kph) Vis. (km) Weather Sky Cond. Air Dwpt Max. Min. Relative Humidity Wind Chill (°C) Heat Index (°C) altimeter (cm) sea level (mb) 1 hr 3 hr 6 hr
6 hour
Temperature (ºC) Pressure Precipitation (cm)